Regional Weather Roundup
Issued by NWS New Orleans/Baton Rouge, LA

Home | Current Version | Previous Version | Text Only | Print | Product List | Glossary On
Versions: 1 2 3 4 5 6 7 8 9 10 11 12 13 14 15 16 17 18 19 20 21 22 23 24 25 26 27 28 29 30 31 32 33 34 35 36 37 38 39 40 41 42 43 44 45 46 47 48 49 50
000
ASUS44 KLIX 252110
RWRLIX
NEW ORLEANS REGIONAL WEATHER ROUNDUP
NATIONAL WEATHER SERVICE NEW ORLEANS LA
400 PM CDT FRI JUL 25 2014

NOTE: "FAIR" INDICATES FEW OR NO CLOUDS BELOW 12,000 FEET WITH NO
      SIGNIFICANT WEATHER AND/OR OBSTRUCTIONS TO VISIBILITY.
      SKY/WX - SKY CONDITION AND SIGNIFICANT WEATHER.
      TMP - AIR TEMPERATURE.     DP    - DEWPOINT TEMPERATURE.
      RH  - RELATIVE HUMIDITY.   PRES  - PRESSURE.
      HI  - HEAT INDEX.          WCI   - WIND CHILL INDEX.

*  THESE STATIONS ARE NOT NWS OR FAA STATIONS AND ARE NOT UNDER
   NWS QUALITY CONTROL.

LAZ038-040-048-061>063-065>067-069-252200-
SOUTHEAST LOUISIANA

CITY           SKY/WX    TMP DP  RH WIND       PRES   REMARKS
N.O. AUDUBON     N/A     86  76  70 MISG        N/A  HX  96
N.O. INTL ARPT PTSUNNY   87  75  67 S12       29.97F HX  96
N.O. LAKEFRONT CLOUDY    87  72  60 S8        29.98F
N.O. DOWNTOWN* MOCLDY    88  70  55 S3        29.98F
SLIDELL        MOSUNNY   81  71  71 NW10G20   29.98R
BATON ROUGE    MOSUNNY   93  72  50 W6        29.97F HX 101
BOOTHVILLE     MOSUNNY   87  76  69 SW12      30.01F HX  97
BELLE CHASSE   PTSUNNY   91  73  55 S10       29.97F HX  99
BOGALUSA*      LGT RAIN  82  72  71 E5        29.99F
GALLIANO*      NOT AVBL
NEW ROADS*       N/A     91  75  58 MISG      29.98S HX 102
GONZALES*        N/A     91  75  58 SW5       29.96F HX 102
HAMMOND*       MOSUNNY   93  70  46 W8        29.98F HX  99
HOUMA*         MOSUNNY   91  73  55 SW9       29.98F HX 100
PORT FOURCHON* PTCLDY    88  73  62 SW10      30.02F HX  96

$$

MSZ070-080>082-252200-
SOUTHERN MISSISSIPPI

CITY           SKY/WX    TMP DP  RH WIND       PRES   REMARKS
MCCOMB         MOSUNNY   91  70  49 W7        29.98F HX  96
GULFPORT       PTSUNNY   89  74  60 VRB7      29.96F HX  98
BILOXI         CLOUDY    86  75  68 SW15      29.97F HX  95
PASCAGOULA     CLOUDY    83  75  77 SW5       29.98S
STENNIS ARPT*  PTSUNNY  N/A N/A N/A SW13      29.97F

$$

COASTAL OBSERVATIONS
LAKE AND NEARSHORE STATIONS

STATION/POSITION TIME  TEMP    WIND        PRES    WAVE
                       AIR SEA DIR/SP/G            HT/PER
                 (UTC) (F)     (DEG/KT/KT) (MB)    (FT/S)
PASCAGOULA       2100   85     220/  6/  8 1014.6
WAVELAND YACHT   2100   87     210/  7/ 13 1014.0
GRAND ISLE       2100   85 85  230/ 11/ 15 1016.7
SOUTHWEST PASS   2100   87 85  230/ 12/ 14 1016.6
NEW CANAL        2100   87 84  210/  5/  6 1015.4
SHELL BEACH      2100   86 82  260/  5/  7 1015.0

OFFSHORE STATIONS

STATION/POSITION TIME  TEMP    WIND        PRES    WAVE
                       AIR SEA DIR/SP/G            HT/PER
                 (UTC) (F)     (DEG/KT/KT) (MB)    (FT/S)
64 S DAUPHIN ISL 2047   85 88  230/ 10/ 12 1016.3

$$




USA.gov is the U.S. government's official web portal to all federal, state and local government web resources and services.